Regional Weather Roundup
Issued by NWS

Home | Current Version | Previous Version | Text Only | Print | Product List | Glossary Off
Versions: 1 2 3 4 5 6 7 8 9 10 11 12 13 14 15 16 17 18 19 20 21 22 23 24 25 26 27 28 29 30 31 32 33 34 35 36 37 38 39 40 41 42 43 44 45 46 47 48 49 50

674
ASUS45 KBOU 140507
RWRCO

WEATHER ROUNDUP FOR COLORADO
NATIONAL WEATHER SERVICE DENVER/BOULDER CO
1000 PM MST SAT FEB 13 2016

NOTE: "FAIR" INDICATES FEW OR NO CLOUDS BELOW 12000 FEET WITH NO
SIGNIFICANT WEATHER AND/OR OBSTRUCTIONS TO VISIBILITY.

COZ001>005-013-030-031-140600-
...NORTHWEST COLORADO...

CITY           SKY/WX    TMP DP  RH WIND       PRES   REMARKS
CRAIG          FAIR       9   7  92 CALM      30.25R
HAYDEN         FAIR      27  16  63 CALM      30.24R
MEEKER         FAIR      20  14  77 CALM      30.23R
MOUNT WERNER   NOT AVBL
STEAMBOAT SPGS FAIR      27  17  64 CALM      30.23R
WALDEN         FAIR      30  14  51 W3        30.18R
$$

COZ006>008-011-140600-
...WEST CENTRAL VALLEYS...

CITY           SKY/WX    TMP DP  RH WIND       PRES   REMARKS
GRAND JUNCTION FAIR      31  27  85 SW3       30.22R
MONTROSE       FAIR      33  27  78 S6        30.26R WCI  28
EAGLE          CLEAR     32  21  64 CALM      30.23R
RIFLE          FAIR      29  21  72 E5        30.23R WCI  24
DELTA          FAIR      35  30  82 SE3       30.24R
NUCLA          FAIR      36  28  75 E9        30.26S
$$

COZ017>023-064>068-140600-
...SOUTHWEST COLORADO...

CITY           SKY/WX    TMP DP  RH WIND       PRES   REMARKS
DURANGO        FAIR      36  21  54 N5        30.17F
CORTEZ         FAIR      33  27  78 N8        30.21S WCI  26
PAGOSA SPRINGS FAIR      36  20  53 CALM      30.20F
TELLURIDE      NOT AVBL
WOLF CREEK PAS FAIR      27  10  50 SW15      30.34S WCI  15
$$

COZ009-010-012-014-032>034-037-058>063-140600-
...CENTRAL COLORADO...

CITY           SKY/WX    TMP DP  RH WIND       PRES   REMARKS
ASPEN          FAIR      27  16  63 SW8       30.23R WCI  19
BUENA VISTA    FAIR      38  10  31 W5        30.18R
COPPER MTN     FAIR      27   1  33 W13G18    30.27R WCI  16
BERTHOUD PASS  FAIR      18   7  62 W24G36    30.24S WCI   0
COTTONWOOD PAS FAIR      37   3  23 W24G46    30.17S
GUNNISON       FAIR      12  12 100 CALM      30.29S
KREMMLING      FAIR      30  12  47 W12       30.20F WCI  21
LEADVILLE      FAIR      26   7  44 VRB5      30.25R WCI  20
MONARCH PASS   FAIR      23   7  50 W38       30.36F WCI   4
SALIDA         NOT AVBL
SUNLIGHT       FAIR      28  16  59 CALM        N/A
WILKERSON PASS MOCLDY    28   1  31 W21G33    30.17F WCI  15
$$

COZ069>075-140600-
...SAN LUIS VALLEY/SANGRE DE CRISTO MOUNTAINS...

CITY           SKY/WX    TMP DP  RH WIND       PRES   REMARKS
ALAMOSA        FAIR      31  22  69 N5        30.18R WCI  26
LA VETA PASS   FAIR      34   9  35 MISG      30.18F
SAGUACHE       FAIR      37  12  35 NW7       30.21R
$$

COZ035-036-038>040-140600-
...NORTHERN COLORADO FRONT RANGE...

CITY           SKY/WX    TMP DP  RH WIND       PRES   REMARKS
DENVER INTL AP FAIR      43  20  39 N14       30.02R
DMNS CITY PARK   N/A     51   6  16 NE12      29.99R
AURORA         PTCLDY    41  19  40 N13G20    30.01R
FRONT RANGE AP NOT AVBL
ERIE MUNI ARPT FAIR      50  13  23 N9        29.98R
BOULDER MUN AP FAIR      54  12  19 W28G49    29.91F
CENTENNIAL     FAIR      50   8  18 N14       29.99S
BROOMFIELD     NOT AVBL
FORT COLLINS   FAIR      46  18  31 N15G23    30.02R
LONGMONT       FAIR      53  13  20 NW28G46   29.97F
$$

COZ041-046-047-076>085-087-088-140600-
...PIKES PEAK/PALMER DIVIDE AND SOUTHERN FOOTHILLS...

CITY           SKY/WX    TMP DP  RH WIND       PRES   REMARKS
COLO. SPRINGS  FAIR      52   6  15 NW16G25   30.00R
A. F. ACADEMY  FAIR      46   6  19 NW18G32   30.00S
SCHRIEVER AFB  FAIR      44  11  26 NE7G15    30.02S
ELLICOTT       FAIR     N/A N/A N/A NE6       30.01R
FALCON         FAIR      44   8  23 NW12      30.04R
FORT CARSON    FAIR      48  16  27 S8        29.98R
LIMON          FAIR      29  22  75 N9        30.03R WCI  20
MONUMENT HILL  FAIR      36  16  44 NW15      30.06R
TRINIDAD       FAIR      48   5  17 W12G21    29.98F
$$

COZ042>045-048>051-090-091-140600-
...NORTHEAST COLORADO...

CITY           SKY/WX    TMP DP  RH WIND       PRES   REMARKS
GREELEY ARPT   FAIR      43  25  49 N26       30.02R
AKRON          FAIR      34  30  85 N23G36    30.04R WCI  22
BURLINGTON     FAIR      33  29  85 W12       30.02R WCI  24
WRAY           FAIR      38  32  78 NW13G21   30.03R
STERLING       FAIR      36  30  80 N21G26    30.03R
HOLYOKE        FAIR      37  32  81 NW15      30.03R
FORT MORGAN    FAIR      35  28  78 N23G33    30.05R WCI  23
$$

COZ086-089-092>099-140600-
...SOUTHEAST COLORADO...

CITY           SKY/WX    TMP DP  RH WIND       PRES   REMARKS
PUEBLO         FAIR      42  30  62 S5        29.97S
LA JUNTA       FAIR      33  28  81 NW9       30.00R WCI  25
LAMAR          FAIR      25  22  88 NW5       29.97R FOG     WCI  19
SPRINGFIELD      N/A     31  27  85 W12       29.93F WCI  22
$$




USA.gov is the U.S. government's official web portal to all federal, state and local government web resources and services.